Regional Weather Roundup
Issued by NWS

Home | Current Version | Previous Version | Text Only | Print | Product List | Glossary On
Versions: 1 2 3 4 5 6 7 8 9 10 11 12 13 14 15 16 17 18 19 20 21 22 23 24 25 26 27 28 29 30 31 32 33 34 35 36 37 38 39 40 41 42 43 44 45 46 47 48 49 50
000
ASUS46 KSEW 270810
RWRWA

WASHINGTON REGIONAL WEATHER ROUNDUP
NATIONAL WEATHER SERVICE SEATTLE WA
100 AM PDT SUN MAY 27 2018

NOTE:"FAIR" INDICATES FEW OR NO CLOUDS BELOW 12,000 FEET WITH NO
SIGNIFICANT WEATHER AND/OR OBSTRUCTIONS TO VISIBILITY.

WAZ507-509-555>559-270900-
SEATTLE, TACOMA, EVERETT, AND VICINITY

CITY           SKY/WX    TMP DP  RH WIND       PRES   REMARKS
EVERETT        CLEAR     51  44  77 NW6       30.24S
BOEING FIELD   CLEAR     56  44  64 CALM      30.23S
RENTON         CLEAR     57  47  69 N8        30.22S HAZE
SEATAC AIRPORT CLEAR     54  46  74 W3        30.23S
JBLM-MCCHORD   CLEAR     55  49  82 W8        30.24S
PUYALLUP       MOCLDY    52  48  87 CALM      30.24S
BREMERTON      CLEAR     45  44  97 CALM      30.24S
JBLM-FT LEWIS  CLEAR     53  49  86 SW5       30.23S
TACOMA NARROWS CLEAR     53  45  74 W5        30.24R
$$

WAZ001-503-506-510-514-515-270900-
NORTH INTERIOR

CITY           SKY/WX    TMP DP  RH WIND       PRES   REMARKS
BELLINGHAM     CLEAR     53  44  71 S3        30.21S
FRIDAY HARBOR  PTCLDY    50  42  74 CALM      30.22S
EASTSOUND      MOCLDY    54  41  62 S6        30.20S
PORT ANGELES   CLEAR     49  45  86 W6        30.25S
EDIZ HOOK      FAIR      51  46  83 W10       30.24F
PORT TOWNSEND  FAIR      50  45  81 NW3       30.25S
NAS WHIDBEY    MOCLDY    54  47  77 SW10      30.27S
ARLINGTON      CLEAR     46  43  89 CALM      30.25R
BURLINGTON     PTCLDY    48  45  87 CALM      30.24S
$$

WAZ020-022-039-040-504-511-512-270900-
SOUTHWEST INTERIOR

CITY           SKY/WX    TMP DP  RH WIND       PRES   REMARKS
SHELTON        CLEAR     51  46  83 SW8       30.22S
OLYMPIA        CLEAR     48  44  86 CALM      30.24S
CHEHALIS       FAIR      50  48  93 CALM      30.25S
KELSO          CLEAR     52  48  86 CALM      30.26R
VANCOUVER      CLEAR     56  48  74 VRB5      30.23S
SCAPPOOSE, OR  CLEAR     53  46  77 N5        30.23R
PORTLAND, OR   CLEAR     56  46  69 NW6       30.23S
$$

WAZ021-516-517-270900-
WASHINGTON COAST

CITY           SKY/WX    TMP DP  RH WIND       PRES   REMARKS
FORKS          MOCLDY    45  42  89 CALM      30.26S
HOQUIAM        CLEAR     53  50  89 W6        30.26S
ASTORIA, OR    CLEAR     49  47  93 W3        30.26S
$$

WAZ019-023-024-040-567>569-270900-
CASCADE MOUNTAINS AND COLUMBIA GORGE

CITY           SKY/WX    TMP DP  RH WIND       PRES   REMARKS
STAMPEDE PASS  PTCLDY    41  39  93 VRB5      30.21S
TROUTDALE, OR  CLEAR     55  47  74 W5        30.23R
HOOD RIVER, OR SUNNY     52  43  71 CALM      30.16S
THE DALLES, OR CLEAR     60  44  55 NW12      30.12S
$$

WAZ026-027-041>044-520-521-270900-
EAST SLOPES

CITY           SKY/WX    TMP DP  RH WIND       PRES   REMARKS
OMAK           CLEAR     62  40  44 N17       30.03R
WENATCHEE      CLEAR     58  36  43 NW12      30.07S
ELLENSBURG     CLEAR     55  40  56 NW23G32   30.08S
YAKIMA         CLEAR     60  38  43 NW12      30.08S
SUNNYSIDE ARPT SUNNY     45  37  76 N5        30.06S
YAKIMA TC      FAIR      57  33  41 SE5       30.07R
$$

WAZ028-034-035-270900-
COLUMBIA BASIN

CITY           SKY/WX    TMP DP  RH WIND       PRES   REMARKS
EPHRATA        CLEAR     60  36  40 NW13      30.03R
MOSES LAKE     CLEAR     60  36  40 W6        30.04R
PASCO          CLEAR     56  39  53 SW6       30.06R
RICHLAND ARPT  SUNNY     54  40  58 S3        30.06R
HERMISTON, OR  CLEAR     58  43  57 SW13      30.08R
$$

WAZ036>038-270900-
NORTHEAST WASHINGTON

CITY           SKY/WX    TMP DP  RH WIND       PRES   REMARKS
SPOKANE GEIGER PTCLDY    58  44  60 S6        30.04S
SPOKANE FELTS  PTCLDY    55  46  71 N3        30.05R
FAIRCHILD AFB  CLEAR     56  43  61 S6        30.04S
COEURDALENE,ID PTCLDY    54  45  71 S6        30.06S
DEER PARK      CLEAR     55  44  66 SE8       30.04S
$$

WAZ029>033-270900-
SOUTHEAST WASHINGTON

CITY           SKY/WX    TMP DP  RH WIND       PRES   REMARKS
PULLMAN        PTCLDY    51  45  79 NE3       30.10R
LEWISTON, ID   PTCLDY    54  50  86 SE3       30.05R
WALLA WALLA    PTCLDY    58  42  55 S14       30.09R
PENDLETON, OR  CLEAR     56  39  53 S5        30.10R
$$



USA.gov is the U.S. government's official web portal to all federal, state and local government web resources and services.